Vorticity
nan nan nan nan nan nan nan nan nan nan nan nan nan nan nan nan nan nan nan nan nan nan
nan 11 10 10 7 8 8 9 9 8 8 8 8 8 8 8 9 9 9 10 9 nan
nan 13 12 12 11 9 9 9 9 9 9 8 8 9 8 7 9 8 8 9 9 nan
nan 12 13 12 12 11 10 10 9 9 9 8 8 9 8 7 9 9 8 9 9 nan
nan 11 12 12 13 13 11 10 10 10 9 9 9 9 9 8 9 9 8 8 8 nan
nan 10 11 13 14 13 12 11 12 11 10 10 10 9 9 9 9 9 9 10 9 nan
nan 10 12 13 13 13 12 12 12 11 11 10 10 11 10 10 9 9 9 10 10 nan
nan 9 10 11 12 12 12 12 11 12 12 11 11 9 8 9 10 9 9 10 10 nan
nan 10 9 8 10 11 11 11 11 11 12 11 12 11 8 5 10 11 10 9 10 nan
nan 9 10 10 10 9 10 11 10 12 12 12 12 13 13 6 8 11 11 9 10 nan
nan 9 9 9 9 11 10 9 11 11 11 12 11 13 16 14 9 11 10 10 11 nan
nan 9 9 9 9 11 10 10 11 10 11 11 10 12 15 17 15 12 11 12 11 nan
nan 8 9 9 11 11 10 10 10 11 11 10 11 13 15 15 16 12 11 12 15 nan
nan nan nan nan nan nan nan nan nan nan nan nan nan nan nan nan nan nan nan nan nan nan
CAPE
0 0 0 0 0 0 0 0 0 0 0 0 0 0 0 0 0 0 0 0 0 0
0 0 0 0 0 0 0 0 0 0 0 0 0 0 0 0 0 0 0 0 0 0
0 0 0 0 0 0 0 0 0 0 0 0 0 0 0 0 0 0 0 0 0 0
0 0 0 0 0 0 0 0 0 0 0 0 0 0 0 0 0 0 0 0 0 0
0 0 0 0 0 0 0 0 0 0 0 0 0 0 0 0 0 0 0 0 0 0
0 0 0 0 0 0 0 0 0 0 0 0 0 0 0 0 0 0 0 0 0 0
0 0 0 0 0 0 0 0 0 0 0 0 0 0 0 0 0 0 0 0 0 0
0 0 0 0 0 0 0 0 0 0 0 0 0 0 0 0 0 0 0 0 0 0
0 0 0 0 0 0 0 0 0 0 0 0 0 0 0 0 0 0 0 0 0 0
0 0 0 0 0 0 0 0 0 0 0 0 0 0 0 0 0 0 0 0 0 0
0 0 0 0 0 0 0 0 0 0 0 0 0 0 0 0 0 0 0 0 0 0
0 0 0 0 0 0 0 0 0 0 0 0 0 0 0 0 0 0 0 0 0 0
0 0 0 0 0 0 0 0 0 0 0 0 0 0 0 0 0 0 0 0 0 0
0 0 0 0 0 0 0 0 0 0 0 0 0 0 0 0 0 0 0 0 0 0